Вернуться в каталог

ATLAS 2 CENTAUR R/B

АктивенHEO
NORAD 23590·ROCKET BODY·🇺🇸 United States

Запущен May 31, 1995 с Cape Canaveral Space Force Station

Loading…

Ближайшие Пролёты (ближайшие 24 часа)

TLE

СвежийSource: Space-Track

Эпоха: Sep 14, 2026, 11:13 UTC

1 23590U 95027B   26257.46767455  .00004692  00000-0  16576-2 0  9996
2 23590  26.8117 198.5587 5800922 355.9583   0.8230  4.30637159420404

Отслеживайте ATLAS 2 CENTAUR R/B в реальном времени с AllMySat

Download on the App Store